Regional Weather Roundup
Issued by NWS

Home | Current Version | Previous Version | Text Only | Print | Product List | Glossary On
Versions: 1 2 3 4 5 6 7 8 9 10 11 12 13 14 15 16 17 18 19 20 21 22 23 24 25 26 27 28
000
ASUS46 KSEW 251810
RWRWA

WASHINGTON REGIONAL WEATHER ROUNDUP
NATIONAL WEATHER SERVICE SEATTLE WA
1000 AM PST SUN FEB 25 2018

NOTE:"FAIR" INDICATES FEW OR NO CLOUDS BELOW 12,000 FEET WITH NO
SIGNIFICANT WEATHER AND/OR OBSTRUCTIONS TO VISIBILITY.

WAZ507-509-555>559-251900-
SEATTLE, TACOMA, EVERETT, AND VICINITY

CITY           SKY/WX    TMP DP  RH WIND       PRES   REMARKS
EVERETT        LGT RAIN  37  36  96 W12G20    29.81R FOG
6HR MIN TEMP:  38; 6HR MAX TEMP:  41; 6HR PCP:  0.09;

BOEING FIELD   CLOUDY    43  38  82 S10G20    29.81F
6HR MIN TEMP:  41; 6HR MAX TEMP:  44; 6HR PCP:  0.03;

RENTON         CLOUDY    44  37  76 S18G26    29.82S
6HR MIN TEMP:  42; 6HR MAX TEMP:  44; 6HR PCP:  0.03;

SEATAC AIRPORT CLOUDY    42  41  96 SW20G29   29.80S
6HR MIN TEMP:  40; 6HR MAX TEMP:  42; 6HR PCP:  0.11;

JBLM-MCCHORD   LGT RAIN  40  40 100 SW15G24   29.86R
6HR MIN TEMP:  39; 6HR MAX TEMP:  41; 6HR PCP:  0.16;

PUYALLUP       DRIZZLE   39  39 100 SW10G18   29.86S
BREMERTON      CLOUDY    40  38  93 S13       29.79F
6HR MIN TEMP:  39; 6HR MAX TEMP:  41;

JBLM-FT LEWIS  LGT RAIN  39  39 100 SW13G21   29.86R
6HR MIN TEMP:  39; 6HR MAX TEMP:  41; 6HR PCP:  0.23;

TACOMA NARROWS CLOUDY    40  36  86 SW17G24   29.83S
6HR MIN TEMP:  39; 6HR MAX TEMP:  41; 6HR PCP:  0.18;

$$

WAZ001-503-506-510-514-515-251900-
NORTH INTERIOR

CITY           SKY/WX    TMP DP  RH WIND       PRES   REMARKS
BELLINGHAM     CLOUDY    41  35  79 S9G17     29.73F
6HR MIN TEMP:  40; 6HR MAX TEMP:  43; 6HR PCP:  0.02;

FRIDAY HARBOR  PTSUNNY   40  32  73 SW10G21   29.78R
6HR MIN TEMP:  39; 6HR MAX TEMP:  43; 6HR PCP: TRACE;

EASTSOUND      PTSUNNY   43  34  70 S13G18    29.74S
PORT ANGELES   CLOUDY    39  32  76 W16       29.82S
6HR MIN TEMP:  37; 6HR MAX TEMP:  43; 6HR PCP:  0.11;

EDIZ HOOK      MOCLDY    40  32  74 W18G24    29.83S
6HR MIN TEMP:  37; 6HR MAX TEMP:  44; 6HR PCP:  0.05;

PORT TOWNSEND  FAIR      39  34  81 W17G25    29.80F
NAS WHIDBEY    CLOUDY    44  35  70 W28G37    29.82F
6HR MIN TEMP:  43; 6HR MAX TEMP:  47; 6HR PCP:  0.04;

ARLINGTON      LGT RAIN  38  34  85 W16G26    29.80S
6HR MIN TEMP:  37; 6HR MAX TEMP:  41; 6HR PCP:  0.07;

BURLINGTON     MOSUNNY   41  34  75 SW14G21   29.76F
$$

WAZ020-022-039-040-504-511-512-251900-
SOUTHWEST INTERIOR

CITY           SKY/WX    TMP DP  RH WIND       PRES   REMARKS
SHELTON        LGT RAIN  39  36  89 SW20G26   29.82F
6HR MIN TEMP:  39; 6HR MAX TEMP:  44; 6HR PCP:  0.28;

OLYMPIA        LGT RAIN  40  37  89 SW9       29.88R
6HR MIN TEMP:  39; 6HR MAX TEMP:  41; 6HR PCP:  0.28;

CHEHALIS       LGT RAIN  41  39  93 VRB6G14   29.91S
KELSO          RAIN      41  39  93 VRB3      29.97F FOG
6HR MIN TEMP:  40; 6HR MAX TEMP:  42; 6HR PCP:  0.24;

VANCOUVER      CLOUDY    44  42  93 S5        29.96F
6HR MIN TEMP:  43; 6HR MAX TEMP:  44; 6HR PCP:  0.04;

SCAPPOOSE, OR  RAIN      43  42  97 S3        29.95F FOG
6HR MIN TEMP:  41; 6HR MAX TEMP:  44; 6HR PCP:  0.12;

PORTLAND, OR   LGT RAIN  44  41  89 S12       29.97F
6HR MIN TEMP:  43; 6HR MAX TEMP:  44; 6HR PCP:  0.04;

$$

WAZ021-516-517-251900-
WASHINGTON COAST

CITY           SKY/WX    TMP DP  RH WIND       PRES   REMARKS
FORKS          LGT RAIN  40  33  76 W7        29.85S
6HR MIN TEMP:  37; 6HR MAX TEMP:  42; 6HR PCP:  0.09;

HOQUIAM        CLOUDY    41  37  86 W12G25    29.90S
6HR MIN TEMP:  41; 6HR MAX TEMP:  45; 6HR PCP:  0.11;

ASTORIA, OR    LGT RAIN  42  38  85 W13G26    29.95S
6HR MIN TEMP:  42; 6HR MAX TEMP:  46; 6HR PCP:  0.19;

$$

WAZ019-023-024-040-567>569-251900-
CASCADE MOUNTAINS AND COLUMBIA GORGE

CITY           SKY/WX    TMP DP  RH WIND       PRES   REMARKS
STAMPEDE PASS  NOT AVBL
TROUTDALE, OR  LGT RAIN  45  41  86 SW15      29.97F
6HR MIN TEMP:  43; 6HR MAX TEMP:  45; 6HR PCP:  0.03;

HOOD RIVER, OR LGT RAIN  41  37  87 CALM      29.90S
THE DALLES, OR CLOUDY    48  40  73 NW13      29.89S
6HR MIN TEMP:  41; 6HR MAX TEMP:  48; 6HR PCP:  0.01;

$$

WAZ026-027-041>044-520-521-251900-
EAST SLOPES

CITY           SKY/WX    TMP DP  RH WIND       PRES   REMARKS
OMAK           CLOUDY    39  29  67 S15       29.62F
6HR MIN TEMP:  31; 6HR MAX TEMP:  39;

WENATCHEE      CLOUDY    41  29  62 W10       29.67F
6HR MIN TEMP:  33; 6HR MAX TEMP:  42;

ELLENSBURG     FLURRIES  37  32  82 SW3       29.72F
6HR MIN TEMP:  30; 6HR MAX TEMP:  37; 6HR PCP: TRACE;

YAKIMA         PTSUNNY   50  31  48 SW20      29.73F
6HR MIN TEMP:  23; 6HR MAX TEMP:  50;

SUNNYSIDE ARPT MOCLDY    46  31  54 SW13G20   29.80F
6HR MIN TEMP:  34; 6HR MAX TEMP:  46;

YAKIMA TC      FAIR      46  29  52 SW12      29.71F
6HR MIN TEMP:  24; 6HR MAX TEMP:  46;

$$

WAZ028-034-035-251900-
COLUMBIA BASIN

CITY           SKY/WX    TMP DP  RH WIND       PRES   REMARKS
EPHRATA        CLOUDY    44  30  57 SW20G28   29.68F
6HR MIN TEMP:  31; 6HR MAX TEMP:  44;

MOSES LAKE     CLOUDY    42  30  62 S21       29.71F
6HR MIN TEMP:  32; 6HR MAX TEMP:  42;

PASCO          CLOUDY    48  28  46 SW20G38   29.85R
6HR MIN TEMP:  41; 6HR MAX TEMP:  48;

RICHLAND ARPT  CLOUDY    48  30  49 S20G30    29.83F
6HR MIN TEMP:  42; 6HR MAX TEMP:  48;

HERMISTON, OR  PTSUNNY   51  28  41 SW31G41   29.84F
6HR MIN TEMP:  40; 6HR MAX TEMP:  51;

$$

WAZ036>038-251900-
NORTHEAST WASHINGTON

CITY           SKY/WX    TMP DP  RH WIND       PRES   REMARKS
SPOKANE GEIGER CLOUDY    35  28  75 SW26G39   29.67F WCI  22
6HR MIN TEMP:  29; 6HR MAX TEMP:  35;

SPOKANE FELTS  CLOUDY    38  27  64 SW22G29   29.70F
6HR MIN TEMP:  31; 6HR MAX TEMP:  38;

FAIRCHILD AFB  MOSUNNY   34  30  87 SW30G37   29.63F WCI  20
6HR MIN TEMP:  28; 6HR MAX TEMP:  34;

COEURDALENE,ID LGT RAIN  35  27  72 SW24G30   29.68F WCI  23
6HR MIN TEMP:  29; 6HR MAX TEMP:  35; 6HR PCP: TRACE;

DEER PARK      CLOUDY    34  28  79 SW21G31   29.68F WCI  22
6HR MIN TEMP:  26; 6HR MAX TEMP:  34; 6HR PCP: TRACE;

$$

WAZ029>033-251900-
SOUTHEAST WASHINGTON

CITY           SKY/WX    TMP DP  RH WIND       PRES   REMARKS
PULLMAN        CLOUDY    33  29  85 S14       29.80F WCI  23
6HR MIN TEMP:  31; 6HR MAX TEMP:  35; 6HR PCP: TRACE;

LEWISTON, ID   CLOUDY    40  29  64 S23G38    29.84F
6HR MIN TEMP:  33; 6HR MAX TEMP:  40; 6HR PCP: TRACE;

WALLA WALLA    CLOUDY    46  27  47 S28G35    29.84F
6HR MIN TEMP:  40; 6HR MAX TEMP:  46;

PENDLETON, OR  CLOUDY    43  25  49 S20       29.86F
6HR MIN TEMP:  36; 6HR MAX TEMP:  43;

$$




USA.gov is the U.S. government's official web portal to all federal, state and local government web resources and services.